When you browse on this site, cookies collect data to enhance your experience and personalize the content and advertising you see.
Visit our Privacy Policy to learn more. By continuing to use the site, you agree to this use of cookies and data.
  • Em Portugal
  • Lista de países
  • Para 7 dias
  • Temperatura da água
  • Mapas de satélite
  • Mapa do tempo
  • Widgets de tempo
  • user-avatar
    Iniciar Sessão

    Previsão horária em Njiva

    Hoje, 24 Maio, Sexta-feira

    Tempo Temperatura Precipitação Vento Pressão Humidade
    00:00 +21°C° 0 mm 2 m/s 669 mmHg 47%
    01:00 +23°C° 0 mm 1 m/s 669 mmHg 40%
    02:00 +23°C° 0 mm 1 m/s 669 mmHg 42%
    03:00 +21°C° 0 mm 2 m/s 668 mmHg 44%
    04:00 +20°C° 0 mm 2 m/s 668 mmHg 46%
    05:00 +20°C° 0 mm 2 m/s 668 mmHg 47%
    06:00 +19°C° 0 mm 2 m/s 669 mmHg 48%
    07:00 +19°C° 0 mm 3 m/s 669 mmHg 46%
    08:00 +22°C° 0 mm 3 m/s 670 mmHg 40%
    09:00 +26°C° 0 mm 4 m/s 671 mmHg 35%
    10:00 +29°C° 0 mm 4 m/s 671 mmHg 29%
    11:00 +30°C° 0 mm 4 m/s 671 mmHg 26%
    12:00 +33°C° 0 mm 4 m/s 671 mmHg 24%
    13:00 +34°C° 0 mm 4 m/s 670 mmHg 21%
    14:00 +33°C° 0 mm 3 m/s 670 mmHg 22%
    15:00 +33°C° 0 mm 3 m/s 669 mmHg 23%
    16:00 +31°C° 0 mm 2 m/s 669 mmHg 24%
    17:00 +29°C° 0 mm 2 m/s 669 mmHg 26%
    18:00 +27°C° 0 mm 2 m/s 669 mmHg 29%
    19:00 +25°C° 0 mm 1 m/s 669 mmHg 31%
    20:00 +24°C° 0 mm 2 m/s 669 mmHg 32%
    21:00 +23°C° 0 mm 2 m/s 669 mmHg 32%
    22:00 +21°C° 0 mm 2 m/s 669 mmHg 33%
    23:00 +20°C° 0 mm 2 m/s 669 mmHg 33%

    Amanhã, 25 Maio, Sábado

    Tempo Temperatura Precipitação Vento Pressão Humidade
    00:00 +19°C° 0 mm 3 m/s 669 mmHg 33%
    01:00 +19°C° 0 mm 3 m/s 669 mmHg 33%
    02:00 +18°C° 0 mm 3 m/s 669 mmHg 32%
    03:00 +18°C° 0 mm 3 m/s 669 mmHg 32%
    04:00 +18°C° 0 mm 3 m/s 669 mmHg 32%
    05:00 +17°C° 0 mm 4 m/s 669 mmHg 31%
    06:00 +17°C° 0 mm 4 m/s 669 mmHg 31%
    07:00 +17°C° 0 mm 4 m/s 670 mmHg 30%
    08:00 +20°C° 0 mm 5 m/s 671 mmHg 26%
    09:00 +24°C° 0 mm 6 m/s 671 mmHg 22%
    10:00 +28°C° 0 mm 7 m/s 672 mmHg 18%
    11:00 +30°C° 0 mm 6 m/s 672 mmHg 16%
    12:00 +32°C° 0 mm 6 m/s 671 mmHg 15%
    13:00 +33°C° 0 mm 5 m/s 671 mmHg 13%
    14:00 +33°C° 0 mm 5 m/s 670 mmHg 13%
    15:00 +33°C° 0 mm 4 m/s 670 mmHg 13%
    16:00 +32°C° 0 mm 4 m/s 669 mmHg 13%
    17:00 +28°C° 0 mm 3 m/s 669 mmHg 16%
    18:00 +26°C° 0 mm 3 m/s 669 mmHg 19%
    19:00 +23°C° 0 mm 2 m/s 668 mmHg 22%
    20:00 +21°C° 0 mm 2 m/s 669 mmHg 25%
    21:00 +20°C° 0 mm 2 m/s 669 mmHg 27%
    22:00 +19°C° 0 mm 3 m/s 669 mmHg 29%
    23:00 +18°C° 0 mm 3 m/s 669 mmHg 31%

    Depois de amanhã, 26 Maio, Domingo

    Tempo Temperatura Precipitação Vento Pressão Humidade
    00:00 +17°C° 0 mm 3 m/s 669 mmHg 32%
    01:00 +17°C° 0 mm 3 m/s 669 mmHg 34%
    02:00 +16°C° 0 mm 3 m/s 668 mmHg 36%
    03:00 +16°C° 0 mm 3 m/s 668 mmHg 38%
    04:00 +14°C° 0 mm 3 m/s 668 mmHg 40%
    05:00 +14°C° 0 mm 3 m/s 668 mmHg 42%
    06:00 +14°C° 0 mm 3 m/s 669 mmHg 43%
    07:00 +13°C° 0 mm 3 m/s 669 mmHg 44%
    08:00 +18°C° 0 mm 3 m/s 670 mmHg 37%
    09:00 +22°C° 0 mm 4 m/s 671 mmHg 31%
    10:00 +27°C° 0 mm 5 m/s 672 mmHg 24%
    11:00 +28°C° 0 mm 5 m/s 671 mmHg 22%
    12:00 +29°C° 0 mm 4 m/s 671 mmHg 20%
    13:00 +32°C° 0 mm 4 m/s 670 mmHg 18%
    14:00 +32°C° 0 mm 4 m/s 670 mmHg 18%
    15:00 +31°C° 0 mm 3 m/s 669 mmHg 18%
    16:00 +30°C° 0 mm 3 m/s 669 mmHg 18%
    17:00 +28°C° 0 mm 3 m/s 668 mmHg 23%
    18:00 +25°C° 0 mm 2 m/s 668 mmHg 27%
    19:00 +21°C° 0 mm 2 m/s 668 mmHg 32%
    20:00 +20°C° 0 mm 2 m/s 668 mmHg 34%
    21:00 +20°C° 0 mm 2 m/s 668 mmHg 36%
    22:00 +19°C° 0 mm 3 m/s 669 mmHg 39%
    23:00 +18°C° 0 mm 3 m/s 668 mmHg 40%

    27 Maio, Segunda-feira

    Tempo Temperatura Precipitação Vento Pressão Humidade
    00:00 +17°C° 0 mm 3 m/s 668 mmHg 42%
    01:00 +17°C° 0 mm 3 m/s 668 mmHg 44%
    02:00 +16°C° 0 mm 3 m/s 668 mmHg 46%
    03:00 +16°C° 0 mm 3 m/s 668 mmHg 47%
    04:00 +14°C° 0 mm 3 m/s 667 mmHg 49%
    05:00 +14°C° 0 mm 3 m/s 668 mmHg 50%
    06:00 +14°C° 0 mm 3 m/s 668 mmHg 50%
    07:00 +14°C° 0 mm 3 m/s 669 mmHg 51%
    08:00 +18°C° 0 mm 4 m/s 669 mmHg 42%
    09:00 +22°C° 0 mm 4 m/s 670 mmHg 34%
    10:00 +27°C° 0 mm 5 m/s 671 mmHg 26%
    11:00 +28°C° 0 mm 5 m/s 671 mmHg 23%
    12:00 +29°C° 0 mm 4 m/s 670 mmHg 21%
    13:00 +32°C° 0 mm 4 m/s 669 mmHg 18%
    14:00 +32°C° 0 mm 4 m/s 669 mmHg 19%
    15:00 +30°C° 0 mm 3 m/s 668 mmHg 19%
    16:00 +30°C° 0 mm 3 m/s 668 mmHg 19%
    17:00 +28°C° 0 mm 3 m/s 668 mmHg 23%
    18:00 +25°C° 0 mm 3 m/s 668 mmHg 27%
    19:00 +21°C° 0 mm 2 m/s 667 mmHg 32%
    20:00 +20°C° 0 mm 2 m/s 667 mmHg 33%
    21:00 +19°C° 0 mm 3 m/s 668 mmHg 34%
    22:00 +18°C° 0 mm 3 m/s 668 mmHg 35%
    23:00 +18°C° 0 mm 3 m/s 668 mmHg 35%

    28 Maio, Terça-feira

    Tempo Temperatura Precipitação Vento Pressão Humidade
    00:00 +17°C° 0 mm 3 m/s 667 mmHg 35%
    01:00 +16°C° 0 mm 3 m/s 667 mmHg 36%
    02:00 +16°C° 0 mm 3 m/s 667 mmHg 36%
    03:00 +14°C° 0 mm 3 m/s 667 mmHg 37%
    04:00 +14°C° 0 mm 3 m/s 667 mmHg 38%
    05:00 +14°C° 0 mm 3 m/s 667 mmHg 38%
    06:00 +14°C° 0 mm 3 m/s 668 mmHg 39%
    07:00 +13°C° 0 mm 3 m/s 668 mmHg 39%
    08:00 +18°C° 0 mm 3 m/s 669 mmHg 34%
    09:00 +22°C° 0 mm 4 m/s 670 mmHg 28%
    10:00 +27°C° 0 mm 5 m/s 671 mmHg 23%
    11:00 +28°C° 0 mm 4 m/s 670 mmHg 21%
    12:00 +30°C° 0 mm 3 m/s 669 mmHg 19%
    13:00 +31°C° 0 mm 3 m/s 668 mmHg 17%
    14:00 +31°C° 0 mm 2 m/s 668 mmHg 17%
    15:00 +31°C° 0 mm 1 m/s 668 mmHg 17%
    16:00 +31°C° 0 mm 1 m/s 667 mmHg 16%
    17:00 +28°C° 0 mm 1 m/s 667 mmHg 19%
    18:00 +26°C° 0 mm 1 m/s 667 mmHg 23%
    19:00 +23°C° 0 mm 2 m/s 666 mmHg 26%
    20:00 +21°C° 0 mm 2 m/s 667 mmHg 28%
    21:00 +20°C° 0 mm 2 m/s 667 mmHg 30%
    22:00 +19°C° 0 mm 2 m/s 667 mmHg 32%
    23:00 +18°C° 0 mm 2 m/s 666 mmHg 34%

    29 Maio, Quarta-feira

    Tempo Temperatura Precipitação Vento Pressão Humidade
    00:00 +17°C° 0 mm 2 m/s 666 mmHg 36%
    01:00 +16°C° 0 mm 1 m/s 666 mmHg 38%
    02:00 +16°C° 0 mm 1 m/s 666 mmHg 40%
    03:00 +15°C° 0 mm 1 m/s 666 mmHg 42%
    04:00 +14°C° 0 mm 1 m/s 666 mmHg 44%
    05:00 +15°C° 0 mm 1 m/s 666 mmHg 44%
    06:00 +15°C° 0 mm 2 m/s 667 mmHg 44%
    07:00 +15°C° 0 mm 2 m/s 667 mmHg 45%
    08:00 +19°C° 0 mm 3 m/s 668 mmHg 37%
    09:00 +24°C° 0 mm 3 m/s 669 mmHg 30%
    10:00 +28°C° 0 mm 4 m/s 670 mmHg 22%
    11:00 +29°C° 0 mm 4 m/s 670 mmHg 21%
    12:00 +31°C° 0 mm 3 m/s 669 mmHg 19%
    13:00 +33°C° 0 mm 3 m/s 669 mmHg 17%
    14:00 +32°C° 0 mm 2 m/s 668 mmHg 17%
    15:00 +32°C° 0 mm 2 m/s 668 mmHg 17%
    16:00 +32°C° 0 mm 1 m/s 667 mmHg 16%
    17:00 +29°C° 0 mm 1 m/s 667 mmHg 20%
    18:00 +26°C° 0 mm 1 m/s 667 mmHg 24%
    19:00 +23°C° 0 mm 1 m/s 666 mmHg 28%
    20:00 +23°C° 0 mm 1 m/s 667 mmHg 30%
    21:00 +22°C° 0 mm 1 m/s 667 mmHg 31%
    22:00 +21°C° 0 mm 1 m/s 667 mmHg 33%
    23:00 +20°C° 0 mm 1 m/s 667 mmHg 35%
    Mostrar mais